[[[{"header":{"parameterUnit":"kt","parameterCategory":2,"dx":1,"dy":1,"la1":30.253999710083008,"la2":30.299108505249023,"lo1":-89.0895004272461,"lo2":-89.04439544677734,"nx":28,"ny":28,"refTime":"2022-10-15T21:00:00:Z","depth":0,"parameterNumber":1,"parameterNumberName":"U-component_of_WINDS"},"data":[0.3057,0.3056,0.3086,0.3098,0.3128,0.3141,0.3156,0.3178,0.3203,0.3222,0.3239,0.3269,0.3306,0.3333,0.3352,0.3365,0.337,0.3347,0.3366,0.3441,0.3453,0.3465,0.3467,0.3348,0.3348,0.3283,0.3282,0.3281,0.311,0.3139,0.3155,0.319,0.3204,0.3245,0.3276,0.3284,0.3295,0.3326,0.3344,0.3364,0.3383,0.3428,0.3452,0.3451,0.3471,0.3455,0.3454,0.3459,0.3541,0.3543,0.3439,0.3439,0.3439,0.3439,0.3439,0.3439,0.3213,0.3211,0.3251,0.3268,0.3295,0.3318,0.3321,0.3359,0.3375,0.3403,0.3437,0.3449,0.3486,0.3529,0.3551,0.3562,0.3584,0.3576,0.3574,0.357,0.3562,0.3649,0.3567,0.3568,0.3568,0.3569,0.3569,0,0.3297,0.3323,0.334,0.3367,0.3381,0.3404,0.3431,0.3434,0.3499,0.3509,0.3526,0.354,0.357,0.3588,0.3617,0.3642,0.3683,0.3692,0.3686,0.3668,0.3648,0.3657,0.3787,0.3693,0.3694,0.3695,0.3696,0.3696,0.3401,0.3396,0.3453,0.3461,0.3483,0.3495,0.3508,0.3567,0.3578,0.3619,0.3614,0.3634,0.3653,0.3675,0.3718,0.3739,0.3759,0.372,0.3762,0.3746,0.3756,0.3755,0.3754,0.3709,0.3707,0.3706,0.3705,0,0.3457,0.3508,0.3509,0.3566,0.358,0.3571,0.362,0.362,0.3657,0.3663,0.3667,0.3724,0.3739,0.379,0.3818,0.3843,0.3827,0.3848,0.3815,0.3821,0.3789,0.379,0.3681,0.3669,0.3795,0.3794,0.3793,0,0.3565,0.3555,0.3631,0.3629,0.3621,0.368,0.367,0.3701,0.3734,0.3739,0.3795,0.3798,0.3862,0.3873,0.3911,0.3907,0.3913,0.3932,0.3941,0.3925,0.3922,0.393,0.3934,0.3966,0.3967,0.3967,0.3967,0,0.3644,0.3675,0.3673,0.3688,0.3747,0.3744,0.3769,0.3807,0.3819,0.3843,0.3852,0.3876,0.3888,0.3906,0.3954,0.398,0.3951,0.3998,0.397,0.3969,0.3959,0.3958,0.3851,0.3968,0.3968,0.3968,0.3969,0,0.3738,0.3762,0.3752,0.3803,0.3808,0.3807,0.3835,0.3846,0.3881,0.3905,0.3925,0.3967,0.397,0.4013,0.4017,0.4038,0.4047,0.4066,0.4065,0.4065,0.4111,0.4041,0.3936,0.3926,0.4069,0.407,0.4071,0,0.3814,0.3818,0.3868,0.3857,0.3866,0.3928,0.3928,0.3958,0.399,0.4002,0.4037,0.405,0.4092,0.4103,0.4099,0.4135,0.4107,0.4141,0.4153,0.4153,0.414,0.4045,0.4015,0.3954,0.4083,0.4081,0.4081,0,0.3879,0.3952,0.3947,0.3966,0.4016,0.4023,0.4023,0.4049,0.4053,0.4081,0.4082,0.4101,0.4134,0.4151,0.4188,0.418,0.4128,0.4216,0.4218,0.4197,0.4093,0.4065,0.4055,0.4154,0.4153,0.4152,0.409,0,0.4006,0.4015,0.4003,0.4044,0.4058,0.4054,0.4109,0.4116,0.4151,0.4185,0.4187,0.4225,0.4249,0.4252,0.4285,0.4253,0.4266,0.43,0.4343,0.4281,0.4262,0.4254,0.4368,0.4369,0.4371,0.4372,0,0,0.4065,0.4079,0.4134,0.4137,0.4152,0.4217,0.4207,0.423,0.4272,0.4281,0.4306,0.4338,0.4367,0.4363,0.4348,0.4359,0.4357,0.4376,0.4311,0.4304,0.4297,0.4276,0.4267,0.4374,0.4375,0.4375,0.4376,0,0.4122,0.4153,0.4144,0.417,0.421,0.4247,0.4244,0.4295,0.4316,0.4319,0.4371,0.4379,0.4403,0.4426,0.4441,0.4379,0.4417,0.4383,0.4331,0.4323,0.4314,0.4306,0.4283,0.4274,0.4379,0.4379,0.4379,0,0.4194,0.4233,0.4234,0.4273,0.43,0.4307,0.4367,0.4372,0.4378,0.4447,0.4448,0.4476,0.4512,0.4502,0.45,0.4522,0.4468,0.4495,0.4488,0.4488,0.4482,0.4471,0.4462,0.4586,0.4587,0.4587,0,0,0.4236,0.4245,0.4304,0.4289,0.4303,0.4357,0.4366,0.4402,0.4434,0.4446,0.4482,0.4511,0.4525,0.4533,0.455,0.4531,0.4543,0.4518,0.4508,0.45,0.4496,0.4488,0.4477,0.4589,0.4589,0.4589,0,0,0.4256,0.4323,0.4353,0.4344,0.4372,0.4428,0.4417,0.4454,0.4475,0.4481,0.454,0.455,0.4542,0.4567,0.4586,0.4565,0.4608,0.4604,0.4549,0.4538,0.4528,0.4521,0.4651,0,0,0,0,0,0.4342,0.4315,0.4342,0.4348,0.4397,0.4414,0.442,0.4469,0.4498,0.4488,0.4524,0.4565,0.459,0.4608,0.4613,0.459,0.4614,0.4609,0.4605,0.4531,0.4518,0.4507,0,0,0,0,0,0,0.4345,0.4353,0.4342,0.4396,0.4408,0.4415,0.4475,0.4488,0.4501,0.4508,0.4556,0.4566,0.4607,0.4609,0.4613,0.459,0.465,0.4612,0.4608,0.4605,0.4526,0.4516,0.4507,0,0,0,0,0,0.4347,0.4354,0.4419,0.4397,0.4407,0.4466,0.4476,0.4487,0.4498,0.4554,0.4565,0.4534,0.4606,0.4612,0.4611,0.4587,0.4648,0.4649,0.461,0.4607,0.4604,0.4521,0,0,0,0,0,0,0.4349,0.4364,0.4422,0.4427,0.4411,0.4466,0.4477,0.4487,0.4544,0.4555,0.4534,0.454,0.4604,0.4609,0.4614,0.4583,0.4646,0.4647,0.4648,0.4608,0.4605,0.4603,0,0,0,0,0,0,0.4361,0.4367,0.4424,0.4439,0.4446,0.4467,0.4476,0.4482,0.4544,0.4521,0.4528,0.4536,0.4596,0.4607,0.4611,0.4619,0.4644,0.4645,0.4646,0.4647,0.4606,0.4604,0,0,0,0,0,0,0.4364,0.437,0.4438,0.4444,0.445,0.4507,0.4473,0.452,0.4557,0.4518,0.4562,0.4564,0.4593,0.4598,0.4608,0.4615,0.4618,0.4644,0.4645,0.4646,0.4646,0,0,0,0,0,0,0,0.4367,0.4317,0.4394,0.4447,0.4453,0.4471,0.4473,0.4474,0.4558,0.456,0.4562,0.4563,0.4638,0.4639,0.464,0.4611,0,0,0.4644,0.4645,0,0,0,0,0,0,0,0,0.4316,0.4317,0.4394,0.4395,0.4396,0.4471,0.4472,0.4474,0.4558,0.456,0.4561,0.4563,0.4638,0.4639,0.464,0,0,0,0,0,0,0,0,0,0,0,0,0,0,0,0.4394,0.4395,0,0.4472,0.4472,0.4473,0.4558,0.456,0.4561,0.4562,0.4638,0.4639,0.464,0,0,0,0,0,0,0,0,0,0,0,0,0,0,0,0,0,0,0,0,0,0,0,0,0,0,0,0,0,0,0,0,0,0,0,0,0,0,0,0,0,0,0,0,0,0,0,0,0,0,0,0,0,0,0,0,0,0,0,0,0,0,0,0,0,0,0,0,0]}],[{"header":{"parameterUnit":"kt","parameterCategory":2,"dx":1,"dy":1,"la1":30.253999710083008,"la2":30.299108505249023,"lo1":-89.0895004272461,"lo2":-89.04439544677734,"nx":28,"ny":28,"refTime":"2022-10-15T21:00:00:Z","depth":0,"parameterNumber":2,"parameterNumberName":"V-component_of_WINDS"},"data":[0.384,0.3899,0.3901,0.3969,0.3982,0.4029,0.4047,0.4069,0.4087,0.4144,0.4178,0.4184,0.4203,0.4243,0.4279,0.4282,0.4298,0.432,0.4319,0.4219,0.4205,0.4192,0.4178,0.4323,0.4323,0.4422,0.4423,0.4424,0.3772,0.3785,0.3821,0.3856,0.3887,0.3867,0.3893,0.3921,0.3964,0.3986,0.4018,0.4068,0.4108,0.4118,0.4157,0.4186,0.4179,0.4196,0.4195,0.4198,0.4092,0.4077,0.4202,0.4202,0.4202,0.4202,0.4202,0.4202,0.3649,0.3684,0.3705,0.3744,0.3761,0.3785,0.3819,0.3825,0.386,0.3899,0.3892,0.394,0.3962,0.4007,0.4022,0.406,0.404,0.406,0.4065,0.407,0.4077,0.3938,0.4066,0.4066,0.4065,0.4065,0.4065,0,0.3559,0.3557,0.359,0.3624,0.3652,0.3678,0.3702,0.3722,0.3716,0.3745,0.3787,0.3812,0.386,0.39,0.3935,0.3945,0.3927,0.3924,0.3938,0.3944,0.3945,0.3947,0.3776,0.392,0.3919,0.3918,0.3918,0.3917,0.3436,0.3476,0.3496,0.352,0.3532,0.357,0.3592,0.3583,0.3608,0.3635,0.3667,0.3706,0.3737,0.3804,0.381,0.3846,0.3838,0.3894,0.3843,0.3847,0.3841,0.384,0.3845,0.3904,0.3905,0.3907,0.3908,0,0.3367,0.3365,0.3426,0.3442,0.3447,0.349,0.3503,0.3537,0.3538,0.3586,0.3597,0.3599,0.364,0.3636,0.3682,0.3679,0.3753,0.3742,0.3746,0.3745,0.3796,0.3792,0.3958,0.3981,0.3829,0.383,0.3831,0,0.3262,0.3314,0.3308,0.3344,0.3402,0.3391,0.3449,0.3455,0.3472,0.3509,0.3486,0.3521,0.3511,0.3546,0.3542,0.3601,0.3608,0.361,0.3609,0.3613,0.3613,0.3627,0.362,0.3601,0.36,0.3599,0.3598,0,0.3155,0.3212,0.3269,0.3282,0.3302,0.333,0.3339,0.3357,0.3378,0.3405,0.342,0.3452,0.347,0.3496,0.349,0.3456,0.3561,0.3513,0.3563,0.3564,0.3587,0.3586,0.3733,0.3597,0.3597,0.3597,0.3596,0,0.307,0.3096,0.3179,0.3196,0.3211,0.3248,0.3279,0.331,0.333,0.3329,0.335,0.3334,0.3382,0.3336,0.3404,0.3362,0.3382,0.3387,0.339,0.3395,0.3343,0.3429,0.3569,0.3584,0.34,0.3398,0.3397,0,0.295,0.3031,0.3021,0.3099,0.3136,0.3108,0.315,0.3167,0.3169,0.3201,0.3203,0.3239,0.3203,0.3214,0.3248,0.3252,0.3307,0.3244,0.3294,0.3295,0.3291,0.3419,0.3441,0.3538,0.3376,0.3378,0.338,0,0.2856,0.2878,0.2893,0.2907,0.2926,0.2956,0.3003,0.3036,0.3058,0.3079,0.3119,0.3168,0.3144,0.3161,0.315,0.3186,0.3269,0.3155,0.3155,0.3177,0.3364,0.3385,0.3402,0.3255,0.3257,0.3259,0.3363,0,0.2731,0.277,0.2808,0.2837,0.2859,0.2906,0.29,0.2924,0.2912,0.2912,0.2969,0.298,0.3013,0.3029,0.3016,0.3098,0.3084,0.3057,0.3011,0.3094,0.3128,0.3142,0.2961,0.296,0.2959,0.2958,0,0,0.2617,0.2672,0.2658,0.2702,0.272,0.2688,0.274,0.2753,0.278,0.2794,0.2768,0.284,0.2849,0.2919,0.2945,0.2957,0.2972,0.2942,0.3054,0.3065,0.3075,0.3112,0.3126,0.2955,0.2955,0.2955,0.2954,0,0.257,0.258,0.263,0.2643,0.2662,0.2659,0.2671,0.2684,0.2686,0.274,0.2713,0.2746,0.2802,0.2817,0.2832,0.2933,0.2911,0.2943,0.3001,0.3042,0.3055,0.3066,0.3104,0.3118,0.2951,0.2952,0.2952,0,0.2478,0.2487,0.251,0.2547,0.2558,0.2596,0.2546,0.2587,0.2615,0.2577,0.2631,0.2636,0.2654,0.272,0.2749,0.2727,0.2857,0.2813,0.282,0.2824,0.2863,0.2878,0.2891,0.2717,0.2717,0.2716,0,0,0.2438,0.2473,0.2478,0.2536,0.2545,0.2541,0.2559,0.2548,0.2564,0.2571,0.2576,0.2594,0.2626,0.2648,0.2677,0.275,0.2754,0.2785,0.2796,0.2805,0.2813,0.2855,0.287,0.2713,0.2713,0.2713,0,0,0.2419,0.2427,0.2411,0.2477,0.2494,0.2502,0.2538,0.2519,0.2544,0.2538,0.2521,0.2524,0.2585,0.2591,0.2552,0.2661,0.2616,0.2625,0.2655,0.2669,0.268,0.2678,0.2503,0,0,0,0,0,0.2366,0.2426,0.2412,0.2421,0.2467,0.2511,0.2516,0.2503,0.2472,0.2501,0.2503,0.2477,0.2567,0.2532,0.2542,0.2586,0.2675,0.2682,0.2688,0.2744,0.2759,0.2771,0,0,0,0,0,0,0.237,0.2382,0.241,0.2422,0.2431,0.2508,0.2453,0.2451,0.2469,0.2463,0.2477,0.2477,0.2467,0.2526,0.2536,0.2577,0.2499,0.2678,0.2683,0.2688,0.2749,0.2761,0.2771,0,0,0,0,0,0.2373,0.2382,0.2458,0.2421,0.2429,0.2427,0.2451,0.2449,0.2462,0.2464,0.2463,0.2451,0.2468,0.2475,0.2532,0.2573,0.2493,0.2496,0.2681,0.2686,0.269,0.2755,0,0,0,0,0,0,0.2375,0.2381,0.246,0.2462,0.2396,0.2422,0.2426,0.2446,0.2461,0.2461,0.2436,0.2431,0.247,0.2475,0.2481,0.2573,0.2488,0.2491,0.2493,0.2685,0.2688,0.2691,0,0,0,0,0,0,0.2376,0.2383,0.2461,0.2431,0.243,0.2418,0.2421,0.2466,0.2462,0.2432,0.2429,0.2434,0.2462,0.2476,0.248,0.2551,0.2484,0.2487,0.2489,0.2491,0.2688,0.269,0,0,0,0,0,0,0.2379,0.2385,0.243,0.2429,0.2428,0.2451,0.2458,0.2505,0.2436,0.2432,0.243,0.2427,0.2463,0.2467,0.2479,0.2549,0.255,0.2484,0.2486,0.2488,0.2489,0,0,0,0,0,0,0,0.2381,0.2341,0.2447,0.2428,0.2427,0.2482,0.2483,0.2483,0.2436,0.2433,0.243,0.2428,0.2464,0.2468,0.2472,0.2547,0,0,0.2483,0.2485,0,0,0,0,0,0,0,0,0.2339,0.2341,0.2447,0.2447,0.2448,0.2482,0.2483,0.2483,0.2435,0.2433,0.2431,0.2429,0.2465,0.2468,0.2471,0,0,0,0,0,0,0,0,0,0,0,0,0,0,0,0.2447,0.2447,0,0.2482,0.2483,0.2483,0.2435,0.2433,0.2431,0.243,0.2466,0.2468,0.2471,0,0,0,0,0,0,0,0,0,0,0,0,0,0,0,0,0,0,0,0,0,0,0,0,0,0,0,0,0,0,0,0,0,0,0,0,0,0,0,0,0,0,0,0,0,0,0,0,0,0,0,0,0,0,0,0,0,0,0,0,0,0,0,0,0,0,0,0,0]}]]]